This demonstration page uses our WeatherBlox Daily Observations layout. Learn more.

Hourly Observations for June 23, 2017

Temp ( °F °C ) Dew Point ( °F °C ) Humidity (%) Winds ( mph kmh ) Pressure ( in mb ) Visibility ( mi km ) Precip ( " mm )
12:54 am 00:54 Cloudy 74 23.3 63 17.2 69 69 N 18 30 29.79 1009 10 16.0934 0 0.0254
1:54 am 01:54 Mostly Cloudy 72 22.2 63 17.2 73 73 N 13 20 29.8 1009 10 16.0934 0 0
2:54 am 02:54 Clear 69 20.6 61 16.1 76 76 NNE 9 15 29.78 1009 10 16.0934 0 0
3:54 am 03:54 Mostly Clear 68 20 59 15 73 73 N 13 20 29.79 1009 10 16.0934 0 0
4:54 am 04:54 Clear 65 18.3 58 14.4 78 78 N 10 17 29.8 1009 10 16.0934 0 0
5:54 am 05:54 Mostly Clear 66 18.9 53 11.7 63 63 NNW 10 17 29.88 1012 10 16.0934 0 0
6:54 am 06:54 Sunny 66 18.9 52 11.1 61 61 NW 10 17 29.92 1013 10 16.0934 0 0
7:54 am 07:54 Sunny 68 20 52 11.1 57 57 NNW 14 22 29.94 1014 10 16.0934 0 0
8:54 am 08:54 Sunny 67 19.4 50 10 55 55 WNW 8 13 29.98 1015 10 16.0934 0 0
9:54 am 09:54 Sunny 70 21.1 47 8.3 44 44 N 20 31 29.98 1015 10 16.0934 0 0
10:54 am 10:54 Partly Cloudy 68 20 48 8.9 49 49 N 21 33 30.01 1016 10 16.0934 0 0
11:54 am 11:54 Cloudy with Light Rain 66 18.9 52 11.1 61 61 NW 14 22 30.05 1018 10 16.0934 0 0.0254
12:54 pm 12:54 Sunny 70 21.1 51 10.6 51 51 NNW 10 17 30.03 1017 10 16.0934 0 0.0254
1:54 pm 13:54 Sunny 74 23.3 49 9.4 41 41 NNW 18 30 30 1016 10 16.0934 0 0
2:54 pm 14:54 Mostly Sunny 76 24.4 52 11.1 43 43 NNW 17 28 29.99 1016 10 16.0934 0 0
3:54 pm 15:54 Partly Cloudy 75 23.9 51 10.6 43 43 N 14 22 29.99 1016 10 16.0934 0 0
4:54 pm 16:54 Mostly Cloudy 77 25 50 10 39 39 NNW 14 22 29.99 1016 10 16.0934 0 0
5:54 pm 17:54 Mostly Cloudy 75 23.9 50 10 41 41 NNW 14 22 29.99 1016 10 16.0934 0 0
6:54 pm 18:54 Partly Cloudy 75 23.9 50 10 41 41 NNW 20 31 30 1016 10 16.0934 0 0
7:54 pm 19:54 Sunny 74 23.3 48 8.9 40 40 NNW 14 22 30.03 1017 10 16.0934 0 0
8:54 pm 20:54 Mostly Sunny 69 20.6 49 9.4 49 49 N 7 11 30.05 1018 10 16.0934 0 0
9:54 pm 21:54 Clear 68 20 49 9.4 51 51 NW 6 9 30.07 1018 10 16.0934 0 0
10:54 pm 22:54 Clear 59 15 51 10.6 75 75 NNW 3 6 30.11 1020 10 16.0934 0 0
11:54 pm 23:54 Clear 55 12.8 51 10.6 87 87 NNW 3 6 30.12 1020 10 16.0934 0 0

Powered by AerisWeather